SCP
-0 0 -0 -0 -0 -0 -0 -0 -0 -0 -0 -0 -0 -0 -0 0 0 -0 -0 -0 -0 0 0 0 0 0 0 0 0 -0 -0 -0
-0 0 0 -0 -0 -0 -0 -0 -0 -0 -0 -0 -0 -0 -0 -0 -0 -0 -0 0 0 0 0 0 0 0 0 0 0 -0 -0 -0
-0 -0 0 -0 -0 -0 -0 -0 -0 -0 -0 -0 -0 -0 -0 -0 -0 -0 -0 0 0 0 0 0 0 0 0 0 0 0 -0 -0
-0 -0 0 0 0 -0 -0 -0 -0 -0 -0 -0 -0 -0 -0 -0 0 0 0 0 0 0 0 0 0 0 0 0 0 0 0 0
-0 0 0 0 0 0 0 -0 -0 -0 -0 -0 -0 -0 0 0 0 0 0 0 0 0 0 0 0 0 0 0 0 0 0 0
0 0 0 0 0 0 0 0 0 -0 -0 -0 -0 0 0 0 0 0 0 0 0 0 0 0 0 0 0 0 0 0 0 0
0 0 0 0 0 0 0 0 0 0 0 0 0 0 0 0 0 0 0 0 0 0 0 0 0 0 0 0 0 0 0 0
0 0 0 0 0 0 0 0 0 0 0 0 0 0 0 0 0 0 0 0 0 0 0 0 0 0 0 0 0 0 0 0
0 0 0 0 0 0 0 0 0 0 0 0 0 0 0 -0 0 0 0 0 0 0 0 0 0 0 0 0 0 0 0 0
0 0 0 0 0 0 0 0 0 0 0 0 0 0 0 0 -0 0 0 0 0 0 0 0 0 0 0 0 0 0 0 0
0 0 0 0 0 0 0 0 0 0 0 0 0 0 0 0 0 0 0 0 0 0 0 0 0 0 0 0 0 0 0 0
1 0 0 0 0 0 0 0 0 0 0 0 0 0 0 0 0 0 0 0 0 0 0 0 0 0 0 0 0 0 0 0
2 1 1 0 0 1 1 1 1 0 1 0 0 1 0 0 0 1 0 0 0 0 0 0 0 0 0 0 0 0 0 0
3 2 2 1 0 1 2 2 1 1 1 1 1 1 2 2 1 1 1 1 1 1 0 0 0 0 0 0 0 0 1 1
6 4 5 2 2 2 2 2 2 1 1 2 2 2 2 1 1 1 1 1 1 1 1 0 0 0 0 0 1 1 1 1
4 4 4 3 2 2 3 2 2 2 2 2 1 1 1 1 1 1 2 2 1 1 1 0 1 1 0 0 0 0 0 0
0 1 3 3 2 2 3 2 1 1 1 2 1 1 1 1 1 1 1 1 1 1 1 1 1 0 0 0 0 0 0 0
1 1 2 2 3 2 2 2 2 2 2 2 1 1 1 1 1 1 1 2 1 1 1 1 0 0 0 0 0 0 0 0
1 1 1 1 1 1 2 2 2 2 2 1 2 2 2 2 1 1 1 0 0 1 0 0 0 0 0 0 0 1 1 1
Wind_Speed_500mb
63 56 51 49 50 49 46 41 36 31 27 27 29 29 27 25 22 22 19 19 20 17 16 14 12 12 11 11 13 15 18 17
65 58 51 49 49 48 45 41 35 30 25 23 26 28 25 23 21 19 15 15 15 14 14 13 11 11 10 8 8 7 12 7
65 58 54 50 49 46 43 41 36 30 24 21 23 26 24 21 18 16 14 12 12 12 13 13 12 12 12 10 9 9 10 10
62 59 56 54 50 46 44 41 36 30 24 20 22 25 23 19 16 14 12 11 11 11 10 12 13 13 14 13 12 12 13 15
58 55 55 53 51 49 45 40 35 30 25 22 23 26 27 23 18 14 12 12 11 11 10 11 12 11 12 12 10 8 8 13
52 52 49 49 48 46 44 42 40 36 32 31 30 30 29 24 19 15 14 13 12 13 13 13 13 12 12 10 8 5 8 7
55 55 52 49 47 45 44 42 41 38 34 33 33 31 29 26 22 18 18 16 15 15 16 17 18 17 16 13 8 11 10 8
42 53 52 50 45 42 40 38 37 35 33 31 31 30 29 27 25 18 23 20 19 21 22 23 23 19 19 18 19 21 18 19
48 46 45 47 45 40 35 32 28 28 29 29 27 28 30 28 26 19 23 23 21 17 22 30 28 23 16 20 24 27 28 34
57 46 42 42 41 34 27 20 27 24 20 17 22 22 26 30 27 23 31 32 29 30 30 27 25 25 26 27 28 29 23 23
61 60 54 40 43 43 30 18 18 17 7 8 8 9 10 24 30 27 34 36 38 36 31 30 35 35 31 33 37 33 32 39
63 67 61 47 43 50 30 26 17 15 18 22 17 20 21 19 24 32 32 39 33 42 45 37 43 40 40 42 48 45 45 42
76 68 56 48 45 54 47 32 35 28 34 22 25 30 31 31 32 31 37 36 37 34 30 35 43 53 58 54 55 44 31 37
68 63 54 49 43 35 48 51 41 44 32 25 29 34 32 34 32 34 39 44 38 40 37 43 47 47 49 50 46 52 51 54
49 59 50 40 34 32 24 48 49 41 40 32 33 29 34 32 36 42 43 41 40 42 44 41 51 52 48 55 60 62 56 54
78 63 45 43 37 36 33 30 38 40 35 38 40 44 47 46 53 57 49 36 40 40 49 47 44 43 40 44 53 72 77 66
13 33 42 46 42 38 37 30 24 21 29 27 23 25 27 28 35 34 35 40 38 38 40 39 43 43 45 44 56 81 42 61
39 53 50 53 48 53 41 31 26 20 24 29 28 29 25 29 32 31 26 26 38 41 47 51 50 51 35 67 44 58 34 27
19 22 23 29 31 40 41 38 34 36 27 28 23 21 31 20 22 28 34 34 30 55 54 53 59 49 63 71 44 50 53 63
Wind_Direction_500mb
156 154 153 155 158 161 161 158 154 146 140 139 143 140 136 134 132 132 139 142 142 153 157 160 160 152 143 142 128 130 136 124
154 153 152 154 159 164 165 160 160 154 147 143 151 151 147 142 136 135 145 152 156 169 178 182 185 188 186 179 175 148 165 168
153 151 150 153 160 165 166 165 165 163 157 152 159 160 157 150 145 146 154 159 168 183 201 207 213 217 224 232 236 235 227 222
155 153 153 156 160 164 167 169 170 172 168 169 167 169 168 165 164 165 166 173 186 197 209 224 232 240 251 255 260 263 266 271
158 157 156 157 161 164 168 171 174 178 176 176 176 178 181 183 184 187 189 199 203 211 222 234 247 251 260 269 272 281 308 307
166 162 158 158 159 163 166 172 177 182 182 181 182 186 190 193 199 205 212 219 222 226 235 242 251 258 262 266 268 236 327 9
170 169 165 162 163 166 170 174 178 182 184 186 186 189 194 200 210 219 227 229 240 248 251 251 251 254 261 259 225 247 266 289
169 173 172 168 170 173 174 177 181 184 187 191 193 196 199 207 207 224 233 241 254 257 257 258 256 255 260 257 233 252 250 257
174 183 179 173 176 178 174 182 183 190 191 200 202 204 207 212 219 225 262 259 257 273 282 263 264 265 257 257 265 277 276 272
170 172 179 173 175 176 170 181 194 196 201 214 221 217 220 214 214 225 256 275 277 284 285 283 284 273 271 269 275 283 281 258
172 175 180 179 176 185 193 204 208 177 194 232 253 258 270 238 220 221 245 263 263 272 281 274 286 288 296 276 281 279 273 279
179 182 181 178 178 183 183 195 192 225 239 241 265 281 280 272 251 232 251 262 266 253 256 263 266 264 272 263 265 275 274 267
174 180 178 179 182 188 181 178 189 196 211 226 246 264 269 270 282 276 252 255 266 270 268 264 265 269 266 266 267 272 268 269
173 180 181 184 184 193 200 196 198 202 202 216 232 247 256 259 251 258 267 267 270 253 264 268 271 275 280 281 278 283 282 280
187 177 176 182 189 195 201 207 216 219 219 217 231 238 244 241 251 273 282 277 261 258 255 262 272 276 281 286 284 279 276 271
173 174 188 191 185 192 199 200 211 215 221 225 231 243 249 257 262 266 271 277 284 267 258 266 275 283 281 286 291 285 274 278
261 236 198 205 202 202 200 196 203 235 227 239 258 267 277 277 270 277 290 285 279 275 271 273 270 274 266 317 297 322 292 284
181 206 212 212 213 217 214 199 202 199 233 239 250 280 296 298 290 284 291 283 293 283 279 269 274 276 293 322 277 280 289 273
200 208 201 196 200 209 213 209 209 226 229 225 241 284 279 271 267 281 264 265 280 273 271 281 285 286 297 292 295 285 281 279
Wind_Speed_850mb
63 56 51 49 50 49 46 41 36 31 27 27 29 29 27 25 22 22 19 19 20 17 16 14 12 12 11 11 13 15 18 17
65 58 51 49 49 48 45 41 35 30 25 23 26 28 25 23 21 19 15 15 15 14 14 13 11 11 10 8 8 7 12 7
65 58 54 50 49 46 43 41 36 30 24 21 23 26 24 21 18 16 14 12 12 12 13 13 12 12 12 10 9 9 10 10
62 59 56 54 50 46 44 41 36 30 24 20 22 25 23 19 16 14 12 11 11 11 10 12 13 13 14 13 12 12 13 15
58 55 55 53 51 49 45 40 35 30 25 22 23 26 27 23 18 14 12 12 11 11 10 11 12 11 12 12 10 8 8 13
52 52 49 49 48 46 44 42 40 36 32 31 30 30 29 24 19 15 14 13 12 13 13 13 13 12 12 10 8 5 8 7
55 55 52 49 47 45 44 42 41 38 34 33 33 31 29 26 22 18 18 16 15 15 16 17 18 17 16 13 8 11 10 8
42 53 52 50 45 42 40 38 37 35 33 31 31 30 29 27 25 18 23 20 19 21 22 23 23 19 19 18 19 21 18 19
48 46 45 47 45 40 35 32 28 28 29 29 27 28 30 28 26 19 23 23 21 17 22 30 28 23 16 20 24 27 28 34
57 46 42 42 41 34 27 20 27 24 20 17 22 22 26 30 27 23 31 32 29 30 30 27 25 25 26 27 28 29 23 23
61 60 54 40 43 43 30 18 18 17 7 8 8 9 10 24 30 27 34 36 38 36 31 30 35 35 31 33 37 33 32 39
63 67 61 47 43 50 30 26 17 15 18 22 17 20 21 19 24 32 32 39 33 42 45 37 43 40 40 42 48 45 45 42
76 68 56 48 45 54 47 32 35 28 34 22 25 30 31 31 32 31 37 36 37 34 30 35 43 53 58 54 55 44 31 37
68 63 54 49 43 35 48 51 41 44 32 25 29 34 32 34 32 34 39 44 38 40 37 43 47 47 49 50 46 52 51 54
49 59 50 40 34 32 24 48 49 41 40 32 33 29 34 32 36 42 43 41 40 42 44 41 51 52 48 55 60 62 56 54
78 63 45 43 37 36 33 30 38 40 35 38 40 44 47 46 53 57 49 36 40 40 49 47 44 43 40 44 53 72 77 66
13 33 42 46 42 38 37 30 24 21 29 27 23 25 27 28 35 34 35 40 38 38 40 39 43 43 45 44 56 81 42 61
39 53 50 53 48 53 41 31 26 20 24 29 28 29 25 29 32 31 26 26 38 41 47 51 50 51 35 67 44 58 34 27
19 22 23 29 31 40 41 38 34 36 27 28 23 21 31 20 22 28 34 34 30 55 54 53 59 49 63 71 44 50 53 63
Wind_Direction_850mb
156 154 153 155 158 161 161 158 154 146 140 139 143 140 136 134 132 132 139 142 142 153 157 160 160 152 143 142 128 130 136 124
154 153 152 154 159 164 165 160 160 154 147 143 151 151 147 142 136 135 145 152 156 169 178 182 185 188 186 179 175 148 165 168
153 151 150 153 160 165 166 165 165 163 157 152 159 160 157 150 145 146 154 159 168 183 201 207 213 217 224 232 236 235 227 222
155 153 153 156 160 164 167 169 170 172 168 169 167 169 168 165 164 165 166 173 186 197 209 224 232 240 251 255 260 263 266 271
158 157 156 157 161 164 168 171 174 178 176 176 176 178 181 183 184 187 189 199 203 211 222 234 247 251 260 269 272 281 308 307
166 162 158 158 159 163 166 172 177 182 182 181 182 186 190 193 199 205 212 219 222 226 235 242 251 258 262 266 268 236 327 9
170 169 165 162 163 166 170 174 178 182 184 186 186 189 194 200 210 219 227 229 240 248 251 251 251 254 261 259 225 247 266 289
169 173 172 168 170 173 174 177 181 184 187 191 193 196 199 207 207 224 233 241 254 257 257 258 256 255 260 257 233 252 250 257
174 183 179 173 176 178 174 182 183 190 191 200 202 204 207 212 219 225 262 259 257 273 282 263 264 265 257 257 265 277 276 272
170 172 179 173 175 176 170 181 194 196 201 214 221 217 220 214 214 225 256 275 277 284 285 283 284 273 271 269 275 283 281 258
172 175 180 179 176 185 193 204 208 177 194 232 253 258 270 238 220 221 245 263 263 272 281 274 286 288 296 276 281 279 273 279
179 182 181 178 178 183 183 195 192 225 239 241 265 281 280 272 251 232 251 262 266 253 256 263 266 264 272 263 265 275 274 267
174 180 178 179 182 188 181 178 189 196 211 226 246 264 269 270 282 276 252 255 266 270 268 264 265 269 266 266 267 272 268 269
173 180 181 184 184 193 200 196 198 202 202 216 232 247 256 259 251 258 267 267 270 253 264 268 271 275 280 281 278 283 282 280
187 177 176 182 189 195 201 207 216 219 219 217 231 238 244 241 251 273 282 277 261 258 255 262 272 276 281 286 284 279 276 271
173 174 188 191 185 192 199 200 211 215 221 225 231 243 249 257 262 266 271 277 284 267 258 266 275 283 281 286 291 285 274 278
261 236 198 205 202 202 200 196 203 235 227 239 258 267 277 277 270 277 290 285 279 275 271 273 270 274 266 317 297 322 292 284
181 206 212 212 213 217 214 199 202 199 233 239 250 280 296 298 290 284 291 283 293 283 279 269 274 276 293 322 277 280 289 273
200 208 201 196 200 209 213 209 209 226 229 225 241 284 279 271 267 281 264 265 280 273 271 281 285 286 297 292 295 285 281 279